Location: Altmatt
(47.1333°N, 8.7000°E)
Time: 03:04:23
(UTC+00:00)

CARTOSAT-1 - Pass Details

Date: 13 July 2020
Orbit: 617 x 618 km, 97.8° (Epoch: 04 August)

Event Time Altitude Azimuth Distance (km) Brightness Sun altitude
Exits shadow 21:09:43 18° 179° (S) 1,509 5.0 -14.2°
Maximum altitude 21:12:49 66° 259° (WSW) 677 3.8 -14.5°
Drops below altitude 10° 21:17:07 10° 341° (NNW) 1,992 7.5 -14.9°
Sets 21:19:20 0° 345° (NNW) 2,903 8.5 -15.1°
